Location: �couen
(49.0206°N, 2.3831°E)
Time: 04:27:08
(UTC+00:00)

Cosmos 2098 - Pass Details

Date: 03 June 2022
Orbit: 387 x 1576 km, 82.9° (Epoch: 04 July)

Event Time Altitude Azimuth Distance (km) Brightness Sun altitude
Rises 02:09:49 0° 355° (N) 2,302 8.9 -12.0°
Reaches altitude 10° 02:11:49 10° 2° (N) 1,431 7.9 -11.9°
Maximum altitude 02:14:44 48° 79° (ENE) 538 5.1 -11.6°
Drops below altitude 10° 02:17:53 10° 155° (SSE) 1,551 6.8 -11.3°
Enters shadow 02:19:18 - 160° (SSE) 2,165 7.5 -11.2°
